This demonstration page uses our WeatherBlox Daily Observations layout. Learn more.

Left ArrowRight Arrow

Hourly Observations for January 28, 2019

Temp ( °F °C ) Dew Point ( °F °C ) Humidity (%) Winds ( mph kmh ) Pressure ( in mb ) Visibility ( mi km ) Precip ( " mm )
12:59 am 00:59 Cloudy 45 7.2 32 0 61 61 NW 9 15 29.99 1016 10 16 0.00 0.00
1:59 am 01:59 Cloudy 45 7.2 32 0 61 61 NW 12 19 29.99 1016 10 16 0.00 0.00
2:59 am 02:59 Cloudy 45 7.2 29 -1.7 54 54 NNW 13 20 29.98 1015 10 16 0.00 0.00
3:59 am 03:59 Cloudy 45 7.2 28 -2.2 52 52 N 12 19 29.96 1015 10 16 0.00 0.00
4:59 am 04:59 Cloudy 41 5 31 -0.6 67 67 NNE 22 35 29.98 1015 10 16 0.00 0.00
5:59 am 05:59 Cloudy 41 5 28 -2.2 60 60 NNE 20 31 29.99 1016 10 16 0.00 0.00
6:59 am 06:59 Cloudy 40 4.4 25 -3.9 55 55 NNE 21 33 30.01 1016 10 16 0.00 0.00
7:59 am 07:59 Cloudy 39 3.9 25 -3.9 57 57 NNE 15 24 30.06 1018 10 16 0.00 0.00
8:59 am 08:59 Cloudy 39 3.9 25 -3.9 57 57 N 15 24 30.07 1018 10 16 0.00 0.00
9:59 am 09:59 Cloudy 40 4.4 24 -4.4 53 53 NNE 18 30 30.08 1019 10 16 0.00 0.00
10:59 am 10:59 Cloudy 39 3.9 20 -6.7 46 46 NNE 15 24 30.10 1019 10 16 0.00 0.00
11:59 am 11:59 Cloudy 39 3.9 19 -7.2 45 45 N 16 26 30.08 1019 10 16 0.00 0.00
12:59 pm 12:59 Cloudy 38 3.3 21 -6.1 51 51 N 15 24 30.06 1018 10 16 0.00 0.00
1:59 pm 13:59 Cloudy 39 3.9 21 -6.1 48 48 N 14 22 30.05 1018 10 16 0.00 0.00
2:59 pm 14:59 Mostly Cloudy 37 2.8 19 -7.2 48 48 N 14 22 30.04 1017 10 16 0.00 0.00
3:59 pm 15:59 Mostly Cloudy 36 2.2 20 -6.7 52 52 N 12 19 30.04 1017 10 16 0.00 0.00
4:59 pm 16:59 Mostly Cloudy 37 2.8 20 -6.7 50 50 NNE 9 15 30.03 1017 10 16 0.00 0.00
5:59 pm 17:59 Partly Cloudy 35 1.7 20 -6.7 54 54 N 8 13 30.02 1017 10 16 0.00 0.00
7:59 pm 19:59 Mostly Clear 30 -1.1 21 -6.1 69 69 Calm 30.02 1017 10 16 0.00 0.00
8:59 pm 20:59 Mostly Clear 30 -1.1 21 -6.1 69 69 Calm 30.04 1017 10 16 0.00 0.00
9:59 pm 21:59 Mostly Clear 29 -1.7 22 -5.6 75 75 Calm 30.06 1018 10 16 0.00 0.00
10:59 pm 22:59 Mostly Clear 26 -3.3 21 -6.1 81 81 Calm 30.07 1018 10 16 0.00 0.00
11:59 pm 23:59 Mostly Clear 28 -2.2 22 -5.6 78 78 S 5 7 30.06 1018 10 16 0.00 0.00

Powered by AerisWeather